Home   Weather   Leoben   Past weeks

Flag for Austria Past Weather in Leoben, Styria, Austria — Yesterday and Last 2 Weeks

Now
59 °F

Partly sunny.


Feels Like: 57 °F
Forecast: 31 / 63 °F
Wind: 13 mph from Southwest

Location: Zeltweg

Current Time: Apr 24, 2017 at 7:12:04 pm

Latest Report: Apr 24, 2017 at 5:50 pm


Visibility: 25 mi

Pressure: 29.95 "Hg (28.09 "Hg at 540m altitude)

Humidity: 36%

Dew Point: 32 °F

Location of LeobenLocation

Past Weather in Leoben — Graph

°F

Leoben Temperature Yesterday

Maximum temperature yesterday: 50 °F (at 2:50 pm)
Minimum temperature yesterday: 34 °F (at 4:50 am)
Average temperature yesterday: 43 °F

High & Low Weather Summary for the Past Weeks

 TemperatureHumidityPressure
High73 °F (Apr 10, 3:20 pm)100% (Apr 10, 4:50 am)30.39 "Hg (Apr 10, 4:50 am)
Low23 °F (Apr 21, 4:50 am)23% (Apr 10, 3:50 pm)29.83 "Hg (Apr 17, 6:50 pm)
Average46 °F56%30.05 "Hg
* Reported Apr 9 5:50 pm — Apr 24 5:50 pm, Leoben, Weather by CustomWeather, © 2017

Note: Actual official high and low records may vary slightly from our data, if they occured in-between our weather recording intervals... More about our weather records

Advertising

Leoben Weather History for the Previous 24 Hours

Scroll right to see more
 ConditionsComfort  
Time TempWeatherWind HumidityBarometerVisibility
5:50 pm
Mon, Apr 24
59 °FPartly sunny.13 mph36%29.95 "Hg25 mi
4:50 pm59 °FPartly sunny.13 mph39%29.92 "Hg25 mi
4:20 pm59 °FScattered clouds.10 mph36%29.95 "Hg25 mi
3:50 pm59 °FScattered clouds.12 mph39%29.95 "Hg25 mi
3:20 pm61 °FScattered clouds.14 mph36%29.98 "Hg25 mi
2:50 pm59 °FPassing clouds.12 mph36%29.98 "Hg25 mi
2:20 pm59 °FPassing clouds.12 mph36%30.01 "Hg25 mi
1:50 pm57 °FPassing clouds.10 mph41%30.01 "Hg25 mi
1:20 pm57 °FPassing clouds.9 mph39%30.01 "Hg25 mi
12:50 pm55 °FScattered clouds.6 mph41%30.04 "Hg25 mi
12:20 pm54 °FScattered clouds.2 mph44%30.04 "Hg25 mi
11:50 am54 °FPassing clouds.2 mph44%30.07 "Hg25 mi
11:20 am50 °FPassing clouds.2 mph50%30.07 "Hg25 mi
10:50 am48 °FPassing clouds.2 mph46%30.09 "Hg25 mi
10:20 am45 °FPassing clouds.2 mph53%30.09 "Hg25 mi
9:50 am45 °FPassing clouds.2 mph53%30.12 "Hg25 mi
9:20 am41 °FPassing clouds.1 mph61%30.12 "Hg25 mi
8:50 am37 °FPassing clouds.1 mph65%30.12 "Hg25 mi
8:20 am34 °FPassing clouds.1 mph75%30.15 "Hg25 mi
7:50 am30 °FPassing clouds.1 mph80%30.15 "Hg25 mi
7:20 am27 °FPassing clouds.1 mph100%30.15 "Hg25 mi
6:50 am25 °FPassing clouds.1 mph80%30.15 "Hg25 mi
5:50 am27 °FPassing clouds.No wind80%30.15 "Hg19 mi
4:50 am25 °FPassing clouds.1 mph80%30.15 "Hg9 mi
1:50 am30 °FPassing clouds.2 mph75%30.18 "Hg6 mi
10:50 pm
Sun, Apr 23
37 °FPassing clouds.6 mph60%30.15 "Hg6 mi
9:50 pm41 °FPassing clouds.6 mph53%30.15 "Hg6 mi
8:50 pm45 °FPassing clouds.8 mph39%30.12 "Hg9 mi
7:50 pm45 °FScattered clouds.10 mph42%30.09 "Hg12 mi
Weather by CustomWeather, © 2017

See weather overviewHow to use our weather pages